Weather in Diatlovo

Belarus     53°27′56″N   25°24′20″E
temp.,
°C
wind,
m/s
gust,
m/s
humid.,
%
clouds,
%
prec.,
mm/h
press.,
hPa
HPBL,
m
20 april, tue
tue2000:00+6ene378229 0.0 1019121
03:00+5ene348696 0.0 101868
06:00+5ene2588100 0.0 1017127
09:00+7e3586100 0.3 1016356
12:00+8ese2379100 0.4 1015603
15:00+11e2264100 0.9 10131039
18:00+10ene226885 1.1 1012677
21:00+6ene359149 1.8 101389
21 april, wed
wed2100:00+4e229034 0.0 101213
03:00+4e1190100 0.0 101110
06:00+4nnw009189 0.0 101010
09:00+7nw017998 0.0 1010239
12:00+11w236114 0.2 10091033
15:00+13w4555100 0.9 10081567
18:00+13w346066 1.4 10081062
21:00+9sw117358 2.0 100910
22 april, thu
thu2200:00+9ssw227786 0.0 100926
03:00+7ssw338096 0.0 100936
06:00+6ssw35906 0.0 100991
09:00+9sw487799 0.1 1009373
12:00+11w786945 0.8 10101173
15:00+10wsw5867100 0.8 10111236
18:00+10wsw566598 0.0 10121072
21:00+6sw3573100 0.1 1012137
23 april, fri
fri2300:00+5sw3965100 0.0 1013223
03:00+4sw3969100 0.0 1013234
06:00+3sw3867100 0.0 1013251
09:00+5sw4768100 0.0 1013559
12:00+5wsw6966100 0.1 10141493
15:00+6sw796094 0.1 10131518
18:00+6wsw7117286 0.6 10131333
21:00+4w6128397 1.1 1014573
24 april, sat
sat2400:00+2wnw7118280 0.1 10161026
03:00+1w7118574 0.2 1017981
06:00−2w499620 0.0 1018310
09:00+2w356917 0.0 1018473
12:00+7wsw5748100 0.0 10171931
15:00+4sw71092100 0.9 1016795
18:00+4ssw61292100 0.7 10131010
21:00+2wnw7118998 1.1 1014803